User: anonymous
Location: Fiddletown
(38.4917°N, 120.6633°W)
Time: 13:29:27
(UTC-07:00)
Language:

Envisat - Orbit

View from above orbital plane
View from above orbital plane
View from above satellite
View from above satellite

Ground track
Ground track

The orbit data is extracted from the following two-line orbital elements,

1 27386U 02009A   14209.28114249  .00000029  00000-0  23986-4 0  3182
2 27386 098.3800 273.6154 0001285 110.0227 290.0636 14.37721868649487
Epoch (UTC): 28 July 2014 06:44:50
Eccentricity: 0.0001285
inclination: 98.3800°
perigee height: 765 km
apogee height: 767 km
right ascension of ascending node: 273.6154°
argument of perigee: 110.0227°
revolutions per day: 14.37721868
mean anomaly at epoch: 290.0636°
orbit number at epoch: 64948

The dashed part of the orbit path shows where the satellite is in the earth's shadow,  

DLR